Meteo Giornale » Osservazioni meteo Cina » Hefei
ore: 01:00 - Osservazioni Meteo Hefei
Lat. 31° 52' N Lon. 117° 14' E Alt. 36 metri s.l.m.
24 °C
Sereno
Temp. 24 Ore
23 °C
30 °C
Nord
7.2 Km/h
Dew point 21 °C
Umidità 83 %
Visibilità 10 Km
Il sole sorge alle ore 05:46
Il sole tramonta alle ore 18:36
| Data e Ora | Cielo e Fenomeni | T °C | DP °C | Um. % | Pres. hPa | Vis. km | Vento km/h | |
|---|---|---|---|---|---|---|---|---|
| Oggi h: 01:00 | Sereno | 24 | 21 | 83 | 1010 | 10 | N 7.2 | |
| Oggi h: 00:00 | Sereno | 25 | 21 | 78 | 1011 | 10 | N 7.2 | |
| Ieri h: 23:00 | Sereno | 25 | 22 | 83 | 1011 | 10 | N 7.2 | |
| Ieri h: 22:00 | Sereno | 26 | 20 | 69 | 1010 | 10 | N 7.2 | |
| Ieri h: 21:00 | Sereno | 26 | 20 | 69 | 1010 | 10 | N 7.2 | |
| Ieri h: 20:00 | Sereno | 27 | 20 | 65 | 1009 | 10 | N 7.2 | |
| Ieri h: 19:00 | Sereno | 27 | 22 | 74 | 1009 | 10 | N 3.6 | |
| Ieri h: 18:00 | Sereno | 28 | 20 | 61 | 1008 | 10 | N 7.2 | |
| Ieri h: 17:00 | Sereno | 30 | 19 | 51 | 1007 | 10 | N/NE 18 | |
| Ieri h: 16:00 | Sereno | 30 | 17 | 45 | 1007 | 10 | N 18 | |
| Ieri h: 15:00 | Sereno | 30 | 18 | 48 | 1007 | 10 | N 18 | |
| Ieri h: 14:00 | Sereno | 29 | 19 | 54 | 1008 | 10 | N 18 | |
| Ieri h: 13:00 | Sereno | 29 | 19 | 54 | 1008 | 10 | N 18 | |
| Ieri h: 12:00 | Sereno | 28 | 18 | 54 | 1008 | 10 | N 14.4 | |
| Ieri h: 11:00 | Poco Nuvoloso | 27 | 19 | 61 | 1009 | 10 | N 14.4 | |
| Ieri h: 10:00 | Sereno | 26 | 19 | 65 | 1009 | 10 | N 18 | |
| Ieri h: 09:00 | Sereno | 25 | 19 | 69 | 1008 | 10 | N 14.4 | |
| Ieri h: 08:00 | Sereno | 25 | 20 | 73 | 1007 | 10 | N/NO 18 | |
| Ieri h: 07:00 | Sereno | 23 | 20 | 83 | 1007 | 10 | N/NO 10.8 | |
| Ieri h: 06:00 | Sereno | 23 | 21 | 88 | 1006 | 10 | N/NO 14.4 | |
| Ieri h: 05:00 | Sereno | 24 | 22 | 88 | 1006 | 8 | N 14.4 | |
| Ieri h: 04:00 | Sereno | 24 | 22 | 88 | 1006 | 8 | N 14.4 | |
| Ieri h: 03:00 | Sereno | 24 | 22 | 88 | 1006 | 8 | N 18 | |



